Probability
0 0 0 0 0 0 0 0 0 0 0 0 0 0 0 0 0 0 0 0 0 0 0 0 0 0 0 0 0 0 0 0 0 0 0 0 0 0 0 0 0 0 0 0
0 0 0 0 0 0 0 0 0 0 0 0 0 0 0 0 0 0 0 0 0 0 0 0 0 0 0 0 0 0 0 0 0 0 0 0 0 0 0 0 0 0 0 0
0 0 0 0 0 0 0 0 0 0 0 0 0 0 0 0 0 0 0 0 0 0 0 0 0 0 0 0 0 0 0 0 0 0 0 0 0 0 0 0 0 0 0 0
0 0 0 0 0 0 0 0 0 0 0 0 0 0 0 0 0 0 0 0 0 0 0 0 0 0 0 0 0 0 0 0 0 0 0 0 0 0 0 0 0 0 0 0
0 0 0 0 0 0 0 0 0 0 0 0 0 0 0 0 0 0 0 0 0 0 0 0 0 0 0 0 0 0 0 0 0 0 0 0 0 0 0 0 0 0 0 0
0 0 0 0 0 0 0 0 0 0 0 0 0 0 0 0 0 0 0 0 0 0 0 0 0 0 0 0 0 0 0 0 0 0 0 0 0 0 0 0 0 0 0 0
0 0 0 0 0 0 0 0 0 0 0 0 0 0 0 0 0 0 0 0 0 0 0 0 0 0 0 0 0 0 0 0 0 0 0 0 0 0 0 0 0 0 0 0
0 0 0 0 0 3 0 0 0 0 0 0 0 0 0 0 0 0 0 0 0 0 0 0 0 0 0 0 0 0 0 0 0 0 0 0 0 0 0 0 0 0 0 0
0 0 0 0 0 0 0 0 0 0 0 0 0 0 0 0 0 0 0 0 0 0 0 0 0 0 0 0 0 0 0 0 0 0 0 0 0 0 0 0 0 0 0 0
0 0 0 0 0 0 0 0 0 0 0 0 0 0 0 0 0 0 0 0 0 0 0 0 0 0 0 0 0 0 0 0 0 0 0 0 0 0 0 0 0 0 0 0
0 0 0 0 0 0 0 0 0 0 0 0 0 0 0 0 0 0 0 0 0 0 0 0 0 0 0 0 0 0 0 0 0 0 0 0 0 0 0 0 0 0 0 0
0 0 0 0 0 0 0 0 0 0 0 0 0 0 0 0 0 0 0 0 0 0 0 0 0 0 0 0 0 0 0 0 0 0 0 0 0 0 0 0 0 0 0 0
0 0 0 0 0 0 0 0 0 0 0 0 0 0 0 0 0 0 0 0 0 0 0 0 0 0 0 0 0 0 0 0 0 0 0 0 0 0 0 0 0 0 0 0
0 0 0 0 0 0 0 0 0 0 0 0 0 0 0 0 0 0 0 0 0 0 0 0 0 0 0 0 0 0 0 0 0 0 0 0 0 0 0 0 0 0 0 0
0 0 0 0 0 0 0 0 0 0 0 0 0 0 0 0 0 0 0 0 0 0 0 0 0 0 0 0 0 0 0 0 0 0 0 0 0 0 0 0 0 0 0 0
0 0 0 0 0 0 0 0 0 0 0 3 0 0 0 0 0 0 0 0 0 0 0 0 0 0 0 0 0 0 0 0 0 0 0 0 0 0 0 0 0 0 0 0
0 0 0 0 0 0 0 0 0 0 0 0 0 0 0 0 0 0 0 0 0 0 0 0 0 0 0 0 0 0 0 0 0 0 0 0 0 0 0 0 0 0 0 0
0 0 0 0 0 0 0 0 0 0 0 0 0 0 0 0 0 0 0 0 0 0 0 0 0 0 0 0 0 0 0 0 0 0 0 0 0 0 0 0 0 0 0 0
0 0 0 0 0 0 0 0 0 0 0 0 0 0 0 0 0 0 0 0 0 0 0 0 0 0 0 0 0 0 0 0 0 0 0 0 0 0 0 0 0 0 0 0
0 0 0 0 0 0 0 0 0 0 0 0 0 0 0 0 0 0 0 0 0 0 0 0 0 0 0 0 0 0 0 0 0 0 0 0 0 0 0 0 0 0 0 0
0 0 0 0 0 0 0 0 0 0 0 0 0 0 0 0 0 0 0 0 0 0 0 0 0 0 0 0 0 0 0 0 0 0 0 0 0 0 0 0 0 0 0 0
0 0 0 0 0 0 0 0 0 0 0 0 0 0 0 0 0 0 0 0 0 0 0 0 0 0 0 0 0 0 0 0 0 0 0 0 0 0 0 0 0 0 0 0
0 0 0 0 0 0 0 0 0 0 0 0 0 0 0 0 0 0 0 0 0 0 0 0 0 0 0 0 0 0 0 0 0 0 0 0 0 0 0 0 0 0 0 0
0 0 0 0 0 0 0 0 0 0 0 0 0 0 0 0 0 0 0 0 0 0 0 0 0 0 0 0 0 0 0 0 0 0 0 0 0 0 0 0 0 0 0 0
0 0 0 0 0 0 0 0 0 0 0 0 0 0 0 0 0 0 0 0 0 0 0 0 0 0 0 0 0 0 0 0 0 0 0 0 0 0 0 0 0 0 0 0
0 0 0 0 0 0 0 0 0 0 0 0 0 0 0 0 0 0 0 0 0 0 0 0 0 0 0 0 0 0 0 0 0 0 0 0 0 0 0 0 0 0 0 0
0 0 0 0 0 0 0 0 0 0 0 0 0 0 0 0 0 0 0 0 0 0 0 0 0 0 0 0 0 0 0 0 0 0 0 0 0 0 0 0 0 0 0 0
Height
5844 5843 5843 5843 5843 5843 5843 5844 5844 5845 5845 5846 5845 5845 5845 5844 5844 5843 5843 5842 5842 5841 5840 5839 5838 5836 5834 5833 5830 5828 5825 5822 5819 5815 5811 5807 5802 5798 5793 5787 5782 5776 5770 5765
5839 5838 5838 5839 5840 5839 5840 5840 5840 5841 5841 5842 5842 5842 5841 5841 5841 5840 5840 5840 5839 5838 5838 5837 5835 5833 5832 5830 5827 5825 5822 5819 5815 5811 5807 5803 5798 5793 5787 5782 5776 5770 5764 5758
5834 5834 5834 5836 5836 5836 5836 5836 5837 5837 5838 5838 5838 5838 5838 5838 5838 5837 5837 5837 5836 5835 5835 5833 5832 5830 5828 5826 5824 5821 5818 5814 5811 5807 5802 5798 5793 5788 5782 5776 5770 5764 5758 5752
5829 5830 5830 5834 5832 5832 5832 5832 5832 5833 5834 5835 5835 5835 5835 5834 5834 5834 5834 5834 5833 5832 5831 5830 5828 5826 5824 5822 5820 5817 5813 5810 5806 5802 5798 5793 5788 5782 5777 5771 5765 5758 5752 5746
5824 5824 5825 5827 5827 5827 5827 5827 5828 5829 5830 5831 5831 5831 5831 5830 5830 5831 5830 5830 5829 5828 5827 5826 5824 5822 5820 5818 5815 5812 5809 5805 5801 5797 5792 5787 5782 5777 5771 5765 5758 5752 5746 5739
5818 5819 5820 5823 5822 5822 5823 5822 5823 5824 5825 5826 5826 5827 5827 5827 5827 5827 5826 5826 5825 5824 5823 5821 5819 5817 5815 5813 5810 5807 5803 5800 5796 5791 5787 5782 5776 5771 5765 5759 5752 5746 5739 5732
5812 5812 5814 5816 5817 5818 5819 5819 5819 5820 5820 5822 5822 5823 5823 5823 5822 5822 5821 5821 5820 5819 5818 5816 5814 5812 5810 5807 5804 5801 5798 5794 5790 5785 5780 5775 5770 5765 5759 5752 5746 5739 5733 5726
5806 5807 5810 5810 5811 5812 5814 5814 5815 5815 5816 5816 5817 5817 5817 5817 5817 5817 5816 5816 5815 5813 5812 5811 5809 5807 5804 5802 5799 5795 5792 5788 5783 5779 5774 5769 5763 5758 5752 5746 5739 5732 5725 5719
5801 5803 5804 5804 5805 5806 5807 5808 5809 5810 5811 5811 5811 5812 5812 5812 5812 5811 5811 5810 5809 5808 5806 5805 5803 5801 5798 5795 5792 5789 5785 5781 5776 5772 5767 5762 5756 5751 5745 5739 5732 5725 5718 5712
5794 5795 5797 5797 5799 5800 5801 5802 5803 5804 5805 5805 5805 5806 5806 5806 5806 5805 5805 5804 5803 5801 5800 5798 5796 5794 5791 5788 5785 5782 5778 5774 5769 5764 5759 5754 5749 5743 5737 5731 5724 5718 5711 5705
5788 5790 5791 5792 5793 5794 5795 5795 5796 5797 5799 5799 5799 5800 5800 5800 5800 5799 5798 5797 5796 5795 5793 5791 5789 5787 5784 5781 5778 5774 5770 5766 5761 5757 5752 5747 5741 5735 5729 5723 5717 5710 5704 5697
5784 5785 5786 5787 5788 5787 5788 5789 5790 5791 5792 5793 5793 5794 5793 5793 5793 5793 5792 5790 5789 5788 5786 5784 5782 5779 5776 5773 5770 5766 5762 5758 5753 5749 5744 5739 5733 5727 5721 5715 5709 5702 5696 5689
5778 5779 5779 5780 5781 5781 5782 5783 5784 5784 5785 5786 5787 5787 5787 5787 5786 5786 5785 5783 5782 5780 5778 5776 5774 5771 5768 5765 5761 5758 5754 5749 5745 5740 5735 5730 5725 5719 5713 5707 5700 5694 5687 5681
5771 5772 5772 5773 5774 5775 5776 5777 5777 5778 5778 5779 5779 5780 5779 5779 5778 5778 5776 5775 5774 5772 5770 5768 5765 5762 5759 5756 5752 5748 5744 5740 5736 5731 5726 5721 5715 5710 5704 5698 5692 5685 5679 5672
5764 5764 5765 5766 5767 5768 5769 5770 5770 5770 5771 5771 5771 5771 5771 5770 5770 5769 5768 5766 5765 5763 5761 5758 5756 5753 5749 5746 5742 5739 5735 5731 5726 5721 5716 5711 5706 5700 5694 5688 5682 5676 5670 5664
5756 5757 5757 5758 5760 5761 5761 5762 5763 5763 5763 5763 5763 5762 5762 5762 5761 5760 5759 5757 5755 5753 5751 5749 5746 5743 5740 5736 5733 5729 5725 5720 5716 5711 5706 5701 5696 5690 5685 5679 5673 5667 5661 5655
5748 5749 5749 5750 5751 5752 5753 5754 5754 5755 5754 5754 5754 5753 5753 5752 5752 5751 5749 5747 5746 5744 5741 5739 5736 5733 5729 5726 5722 5718 5714 5710 5705 5701 5696 5691 5685 5680 5674 5668 5663 5657 5652 5646
5741 5741 5741 5741 5742 5743 5744 5745 5745 5745 5745 5745 5745 5744 5743 5742 5742 5740 5739 5737 5735 5733 5730 5728 5725 5722 5718 5715 5711 5707 5703 5699 5694 5689 5684 5679 5674 5669 5663 5658 5652 5647 5642 5637
5732 5732 5733 5733 5734 5734 5735 5735 5736 5736 5736 5736 5736 5735 5734 5732 5731 5730 5728 5727 5724 5722 5720 5717 5713 5710 5707 5703 5699 5695 5691 5686 5682 5677 5672 5667 5662 5657 5652 5647 5641 5636 5632 5627
5725 5725 5726 5726 5726 5726 5726 5727 5727 5727 5726 5726 5725 5725 5724 5722 5721 5720 5718 5716 5713 5711 5708 5705 5702 5698 5694 5690 5686 5682 5678 5673 5669 5665 5660 5655 5650 5645 5640 5635 5630 5625 5621 5617
5717 5718 5718 5718 5718 5717 5717 5717 5717 5717 5716 5716 5715 5714 5713 5711 5710 5708 5706 5704 5702 5699 5695 5692 5689 5685 5681 5677 5673 5669 5664 5660 5655 5651 5646 5642 5637 5632 5627 5623 5619 5615 5611 5607
5709 5709 5709 5709 5709 5708 5708 5708 5707 5707 5706 5705 5704 5703 5702 5700 5698 5696 5694 5692 5689 5686 5682 5679 5675 5671 5667 5663 5659 5654 5650 5645 5641 5636 5632 5627 5623 5619 5614 5611 5607 5604 5600 5597
5700 5700 5700 5700 5699 5699 5698 5698 5697 5696 5695 5694 5693 5692 5690 5688 5686 5684 5682 5679 5675 5672 5669 5665 5661 5657 5652 5648 5644 5639 5635 5630 5625 5621 5617 5613 5609 5605 5602 5598 5595 5592 5590 5587
5691 5691 5691 5690 5690 5689 5689 5688 5687 5686 5684 5683 5681 5679 5678 5675 5673 5670 5668 5665 5661 5658 5654 5650 5645 5641 5637 5633 5628 5623 5619 5614 5610 5606 5602 5598 5595 5592 5589 5586 5583 5581 5579 5577
5681 5681 5680 5680 5679 5678 5678 5677 5675 5674 5673 5671 5669 5667 5664 5662 5659 5656 5653 5650 5646 5642 5638 5634 5630 5626 5621 5617 5612 5608 5603 5599 5595 5591 5588 5584 5581 5578 5576 5573 5572 5570 5568 5567
5671 5670 5669 5669 5668 5667 5666 5664 5663 5662 5660 5658 5656 5653 5651 5648 5645 5641 5638 5634 5631 5627 5623 5619 5614 5610 5606 5601 5597 5593 5589 5584 5581 5577 5574 5571 5568 5566 5564 5562 5560 5559 5558 5557
5659 5659 5658 5657 5656 5655 5653 5652 5650 5648 5646 5644 5642 5639 5636 5633 5630 5626 5623 5619 5615 5611 5607 5603 5599 5595 5591 5587 5583 5579 5575 5571 5568 5564 5561 5558 5556 5554 5552 5551 5550 5549 5549 5548
Wind_Speed
14 13 13 13 13 15 14 13 12 10 10 8 7 6 4 4 5 5 5 5 6 7 8 9 9 10 11 12 13 15 17 18 20 22 23 25 26 28 30 31 32 33 33 33
14 14 14 14 14 15 14 14 13 12 10 9 8 6 5 5 6 6 6 7 7 8 9 10 10 11 12 13 14 16 18 20 22 23 24 26 27 29 31 32 33 33 33 33
16 15 15 14 14 15 15 15 13 13 11 10 9 7 6 6 7 7 7 7 8 9 10 10 11 12 13 14 16 18 20 21 23 24 26 28 29 30 31 33 33 34 34 34
17 17 16 12 14 15 16 16 15 14 13 11 9 8 7 7 8 8 8 9 9 10 11 11 12 13 14 16 17 19 21 22 24 26 27 29 30 31 32 33 34 35 35 35
17 18 16 15 16 16 17 18 17 15 13 12 11 9 8 9 9 9 9 10 11 11 12 13 14 15 16 17 19 21 22 24 26 27 29 30 31 32 33 34 35 36 35 35
18 18 18 17 17 18 19 19 18 17 14 13 11 10 10 11 11 11 11 11 12 12 13 14 15 16 18 19 20 22 23 25 27 28 30 31 32 33 34 35 36 36 36 36
19 19 19 18 18 19 20 19 19 18 17 15 14 13 13 13 12 12 12 13 13 14 14 15 17 18 19 20 22 23 25 26 28 30 31 32 33 34 35 36 37 37 37 37
19 19 19 19 19 19 18 19 18 17 17 16 15 15 14 14 13 13 13 14 15 16 17 18 19 20 21 22 23 25 26 28 29 31 32 33 33 34 35 37 38 38 38 37
20 17 17 18 18 18 18 18 18 18 17 16 16 16 16 15 15 15 15 16 16 17 18 19 21 22 23 24 25 26 28 29 31 32 32 33 34 35 37 38 39 39 38 38
19 17 17 17 18 18 17 17 18 18 17 17 17 17 16 16 16 17 17 18 18 19 21 22 23 24 25 26 27 28 30 31 32 33 33 33 35 36 37 39 40 39 39 38
19 16 15 15 16 16 17 17 18 18 18 18 18 18 17 18 18 18 19 20 20 21 22 23 24 25 26 28 29 30 31 33 33 33 34 35 36 37 38 39 40 40 39 39
19 17 17 17 17 16 15 15 16 18 19 19 19 19 19 19 20 20 20 21 22 23 24 25 26 27 28 30 31 32 33 33 34 34 35 36 37 38 39 40 40 41 40 40
22 22 21 20 19 17 17 17 18 18 19 19 19 20 20 20 21 22 22 23 24 25 26 27 28 29 30 31 33 33 33 34 35 35 36 38 39 39 39 40 41 41 41 41
23 23 22 22 21 20 19 20 21 21 22 22 22 22 22 22 23 24 25 26 26 27 28 29 30 31 32 33 34 34 35 35 36 37 38 39 40 40 41 41 41 41 41 40
25 24 24 24 23 23 22 22 22 22 23 23 23 23 23 23 24 26 27 28 29 29 30 31 32 33 34 34 35 35 36 36 37 39 39 40 41 42 42 42 41 41 40 40
25 26 25 25 25 24 23 23 23 23 23 24 24 25 25 25 26 27 28 30 31 31 32 33 33 34 35 35 36 36 37 38 39 40 40 41 42 43 43 43 42 41 40 39
25 25 25 25 25 24 23 23 23 23 23 23 25 26 26 27 27 28 29 31 32 33 34 34 34 35 36 37 38 38 39 40 41 41 42 43 44 44 44 43 43 41 40 39
27 26 26 24 22 22 22 23 23 24 24 25 26 27 28 29 30 30 31 32 34 34 35 36 36 37 38 39 40 41 41 42 43 43 44 44 44 45 45 44 42 41 40 38
25 25 25 25 24 23 22 22 23 24 25 26 27 28 30 31 31 32 33 34 35 35 36 37 38 39 40 41 42 43 44 44 45 45 46 46 46 45 45 44 42 41 39 36
23 23 24 24 24 24 24 24 25 26 27 28 29 30 31 32 33 34 35 35 36 37 38 40 41 42 43 44 44 45 46 46 46 47 47 46 46 45 45 43 42 39 37 35
23 23 24 24 25 25 26 26 27 28 29 30 31 32 33 34 35 36 36 37 38 39 41 42 43 44 45 46 47 47 48 48 48 48 48 47 46 45 44 42 40 37 36 34
25 24 24 25 25 27 28 29 30 31 32 32 33 34 35 35 36 37 38 39 40 42 43 44 45 46 47 48 48 49 49 49 49 49 48 47 46 44 42 39 37 35 34 33
25 26 26 27 28 28 29 30 31 32 33 34 35 36 36 37 38 39 40 42 43 44 45 46 47 48 49 49 49 49 49 49 48 48 47 45 44 42 40 38 36 35 33 31
28 29 29 29 30 30 30 31 33 34 35 36 37 38 39 40 41 42 43 44 46 46 47 48 49 49 49 50 50 49 49 48 47 46 45 44 42 40 38 36 35 33 31 29
31 31 31 32 33 33 34 34 35 36 37 38 39 40 41 42 43 44 45 46 47 47 48 49 49 49 49 49 48 48 47 46 45 44 42 41 40 38 36 34 32 30 28 27
34 35 35 35 36 36 36 36 37 38 39 40 41 42 43 44 45 46 47 47 48 48 48 49 49 48 48 47 47 46 45 44 42 40 39 37 36 35 33 31 29 27 25 24
36 36 37 38 38 38 38 39 39 40 42 43 43 43 44 44 45 46 47 47 47 47 47 46 46 46 46 45 44 43 42 41 39 38 36 35 34 32 30 28 26 25 23 21
Wind_Direction
266 263 259 251 239 238 244 256 262 267 274 283 295 307 315 328 341 345 341 331 326 328 329 330 330 330 331 332 333 333 334 334 334 334 334 334 334 334 334 333 332 330 329 327
267 263 257 245 239 239 243 249 258 265 272 284 294 303 310 318 324 324 321 312 311 316 319 321 321 322 324 327 329 330 331 332 332 332 332 332 332 333 333 332 332 330 329 328
262 261 258 249 240 243 246 249 257 265 272 282 294 300 304 306 307 309 306 301 300 305 310 312 313 315 317 319 322 325 327 328 330 330 330 330 330 331 331 331 331 331 329 328
257 253 253 247 242 242 248 252 256 260 265 273 282 290 292 292 295 297 295 293 293 298 305 308 309 311 313 315 317 321 325 326 327 327 328 329 329 329 330 330 330 330 330 329
255 254 254 245 242 245 246 248 254 258 262 269 276 281 284 285 287 288 286 286 290 295 301 304 307 309 311 312 315 318 321 322 323 324 325 327 327 328 329 330 330 330 330 329
257 255 250 245 246 247 249 248 254 258 262 269 277 276 278 280 278 279 279 283 287 291 296 301 305 307 309 310 312 315 318 321 322 323 324 325 326 326 327 328 330 330 330 329
259 254 251 248 246 246 249 253 255 256 259 266 275 275 274 275 275 274 277 281 286 289 293 297 301 305 307 308 310 313 316 319 321 322 323 324 325 326 327 328 329 330 329 329
255 254 256 255 251 250 254 253 253 253 261 267 268 270 272 275 274 275 278 282 286 289 292 296 299 302 305 307 309 311 314 317 319 321 321 321 322 324 325 327 328 329 329 328
261 261 258 257 254 254 255 256 256 257 259 265 266 269 271 272 274 277 280 282 286 290 292 294 297 300 303 306 308 310 312 314 316 319 319 320 321 322 324 325 327 327 327 327
265 267 267 259 256 259 260 262 254 257 263 263 266 267 268 272 275 279 281 284 286 288 290 293 296 299 301 304 307 309 311 312 313 315 317 318 320 322 323 324 325 326 326 326
272 275 273 267 266 264 261 261 259 256 261 265 267 268 269 272 275 278 281 283 286 288 289 292 294 298 300 301 305 308 310 312 312 313 315 316 317 319 321 321 322 324 324 325
269 272 272 272 271 268 266 267 264 262 265 270 272 270 270 273 275 278 280 282 285 287 289 290 292 296 299 301 303 305 308 309 310 311 312 315 317 319 320 320 321 322 322 323
269 271 271 271 270 267 270 271 269 268 272 272 273 273 272 273 275 277 279 281 283 286 289 291 293 296 299 300 302 304 306 308 309 310 311 313 315 317 318 318 319 320 321 321
267 269 271 271 272 272 269 270 272 273 273 273 273 273 274 276 277 277 279 282 284 286 289 291 293 295 298 300 302 303 305 306 308 309 311 312 314 315 317 317 317 318 319 320
267 268 269 270 270 270 270 272 274 274 273 272 272 274 275 277 278 279 281 283 285 288 289 291 294 296 298 300 302 303 305 306 307 308 309 311 312 314 315 315 316 316 317 317
266 267 268 269 270 268 269 271 275 273 272 272 273 274 276 278 279 280 282 285 287 287 289 292 294 296 298 299 300 302 303 305 306 307 308 309 310 311 313 313 313 314 314 315
266 266 266 266 267 266 268 270 272 273 272 274 274 276 277 279 280 280 282 285 287 288 290 292 293 295 297 299 299 300 302 304 304 306 307 307 308 309 311 311 312 311 311 312
265 264 265 266 266 268 269 270 272 273 273 275 277 279 281 281 282 283 284 285 287 289 291 293 294 296 297 298 298 299 301 302 303 304 305 306 307 307 308 309 309 308 308 308
266 266 268 268 269 269 271 272 272 273 274 275 277 279 280 281 283 285 286 286 287 289 291 292 294 295 296 297 298 299 300 300 301 302 303 304 304 305 306 306 305 306 305 305
274 275 276 275 272 271 271 273 276 277 278 279 279 280 281 282 284 285 286 288 289 290 291 292 293 295 296 297 297 298 298 299 299 300 301 301 302 302 303 302 303 303 302 301
275 275 276 276 275 274 274 276 277 279 280 280 281 282 283 284 285 286 287 289 290 291 292 293 294 295 295 296 296 296 297 297 298 299 299 299 300 300 300 300 300 299 298 298
274 274 275 275 274 275 275 277 278 279 280 281 282 283 283 284 286 287 288 289 291 292 292 293 293 294 295 295 295 295 296 297 298 298 298 298 298 298 298 298 297 296 295 295
271 272 273 272 274 276 277 278 279 281 282 283 283 284 285 286 287 288 289 290 291 291 292 293 293 294 295 296 296 296 296 296 296 297 297 297 297 297 296 295 294 293 293 292
275 275 274 274 275 277 278 280 280 282 283 284 284 285 286 287 287 288 289 290 291 292 292 293 294 295 296 296 296 296 295 295 295 295 295 295 295 294 293 292 291 290 289 288
276 275 276 277 279 280 280 281 283 284 285 286 286 286 287 288 289 289 290 291 292 293 293 294 294 295 295 295 295 295 295 294 294 294 294 294 293 292 291 289 288 285 283 282
277 278 280 282 283 284 284 285 285 286 286 287 288 288 288 289 290 290 291 292 293 294 294 295 295 295 295 296 296 296 296 295 294 294 294 293 292 292 289 285 283 281 279 279
279 280 282 283 283 284 285 285 286 287 287 288 288 289 289 290 290 291 292 293 293 293 294 295 295 296 296 296 297 297 296 295 294 294 293 292 291 289 286 282 279 276 277 277